Wind_Speed
11 8 11 8 13 9 15 12 15 16 25 15 13 10 7 11 11 12 23 21 18 19 18 17 17 17 17 17 15 14 15 17 15 17 16 12 14 15 12 12 18 20 20 19 19 19 19 20 19
11 9 12 15 20 22 17 16 12 10 22 15 10 12 9 10 13 22 20 21 17 16 17 16 16 15 15 16 15 14 13 14 15 15 14 13 14 16 14 13 19 22 20 19 19 19 18 18 18
5 9 12 10 8 15 20 14 12 21 19 13 11 6 4 18 21 19 18 19 17 15 14 14 13 14 15 15 15 13 12 12 13 14 13 14 14 16 17 17 19 22 20 19 19 18 19 17 17
6 15 13 17 22 15 19 18 11 20 18 8 6 8 18 20 17 11 16 18 17 14 14 13 12 13 13 15 14 13 11 11 13 14 12 13 15 16 18 18 20 21 20 18 19 17 18 16 15
13 13 14 22 21 19 13 9 16 15 10 9 7 15 22 23 20 13 15 16 15 15 14 13 13 13 12 13 14 13 9 10 12 13 13 11 13 15 17 19 20 19 19 19 19 17 17 15 14
11 8 21 25 24 18 17 8 9 9 9 11 11 19 23 20 19 16 16 15 12 10 14 13 11 11 11 10 11 13 9 9 11 11 13 11 11 14 16 18 19 19 17 18 18 17 16 15 15
0 6 17 22 20 15 13 7 6 12 10 11 9 16 24 21 19 17 12 14 13 11 11 12 11 10 10 9 10 10 11 9 11 11 10 11 10 13 13 16 17 18 19 17 16 16 14 13 12
7 6 12 18 18 15 10 8 11 6 9 14 8 1 18 24 19 15 15 17 14 12 11 10 9 9 9 8 9 7 9 10 11 12 12 9 10 11 13 13 14 15 16 17 15 14 14 13 12
13 1 14 14 14 14 11 15 12 10 8 6 4 4 15 25 23 20 12 11 14 10 10 10 9 8 8 8 8 6 7 9 13 13 11 9 10 10 11 12 13 14 14 13 14 14 12 13 13
3 8 13 11 12 16 18 18 19 12 14 13 4 14 18 22 24 20 10 1 9 10 8 9 7 9 9 7 9 6 7 8 13 14 13 11 10 10 11 10 11 12 13 13 13 13 13 13 13
8 11 9 11 15 20 17 14 12 19 15 12 11 18 19 23 21 16 9 7 5 11 12 13 11 9 14 12 9 6 8 10 12 14 13 10 9 10 9 9 9 10 11 12 10 11 12 14 13
13 11 10 10 12 16 11 16 14 13 16 13 7 11 15 17 21 14 13 11 8 6 6 6 7 6 10 7 7 9 9 13 10 14 11 8 9 8 8 7 8 9 10 10 10 9 8 7 18
11 9 11 11 11 12 12 15 9 14 13 14 10 12 13 17 19 13 9 12 11 8 7 5 5 4 4 5 4 7 7 9 10 13 9 9 9 9 8 6 6 6 8 9 10 9 7 9 14
12 12 10 9 14 9 13 14 10 12 15 13 12 8 13 17 18 19 11 8 6 5 5 4 6 6 6 4 6 6 6 10 8 10 8 6 7 6 6 5 4 5 8 9 9 11 8 9 8
10 10 10 10 10 10 12 13 15 9 16 15 14 11 11 12 11 14 12 15 9 7 8 7 9 7 6 5 6 6 6 8 7 8 8 8 6 4 4 7 6 6 7 8 7 6 7 8 8
10 14 15 11 11 10 11 7 11 14 21 18 17 15 17 18 17 14 15 13 11 10 9 10 9 7 7 7 6 5 7 10 9 8 9 7 5 3 2 4 4 5 7 7 7 7 6 6 6
6 10 10 12 18 12 17 13 14 13 17 22 19 19 20 16 19 18 20 18 15 12 13 10 8 12 8 8 8 8 8 6 4 7 7 6 4 2 2 3 2 5 5 7 9 6 4 3 4
12 27 20 24 14 15 15 10 18 15 12 21 20 19 22 20 22 23 23 21 20 11 11 10 10 10 9 7 7 8 9 7 3 4 7 5 3 2 0 3 3 3 4 7 6 7 7 4 1
19 19 15 11 24 21 19 14 18 15 16 17 17 21 19 22 22 23 23 22 21 14 6 9 11 7 9 8 6 7 7 9 9 6 7 6 5 3 1 5 5 3 3 2 7 7 5 5 6
26 24 20 2 23 32 30 14 11 19 24 21 16 22 17 19 20 24 25 23 24 17 9 10 13 13 7 8 8 8 7 7 6 5 7 6 4 4 2 4 3 3 2 4 8 6 4 2 5
20 38 36 19 5 28 26 17 16 10 28 25 26 20 17 14 21 24 25 22 24 20 13 11 13 11 9 8 7 8 7 7 6 5 8 5 4 3 2 3 3 2 4 6 6 6 6 5 4
22 37 34 23 26 22 26 12 22 15 18 25 25 19 22 19 17 24 24 23 24 23 15 9 13 7 10 9 9 6 3 2 5 11 11 9 9 4 5 3 1 4 1 10 6 5 5 7 4
20 4 15 40 14 10 23 13 23 24 23 25 28 27 21 20 20 19 21 19 18 15 6 3 13 10 13 10 6 4 3 1 4 2 6 13 8 10 5 2 1 2 5 5 8 6 6 3 8
13 16 18 16 16 16 15 20 11 16 9 22 25 27 28 23 23 21 19 19 20 14 16 13 7 9 12 10 7 4 4 5 6 4 2 4 8 11 10 7 5 5 8 8 9 8 7 6 6
14 21 18 9 8 3 8 8 11 16 21 17 23 25 30 30 27 25 20 24 24 24 15 16 12 6 9 9 7 4 6 7 2 2 5 6 13 7 4 9 9 11 8 9 10 9 8 6 4
26 20 19 6 6 6 12 13 7 16 7 15 23 26 24 30 28 29 25 22 27 26 23 14 12 7 7 8 8 5 7 8 6 6 7 8 9 13 11 12 10 10 8 9 11 9 7 7 4
24 26 23 22 31 13 11 9 10 5 13 19 26 27 27 31 30 31 27 21 28 27 24 20 13 10 8 8 9 8 8 7 10 7 8 6 5 8 12 22 11 10 10 9 8 7 6 6 5
27 26 26 20 5 5 14 14 13 9 12 17 20 23 34 33 28 32 28 23 26 26 25 22 15 9 8 10 9 7 7 8 7 5 5 3 1 5 12 26 18 15 11 8 7 6 4 3 1
28 23 26 26 19 3 1 3 16 4 9 15 19 27 36 19 19 30 31 24 22 24 26 21 14 11 11 10 9 9 8 8 2 1 3 2 6 10 11 13 12 11 6 7 7 5 3 4 3
23 25 24 27 16 18 19 12 3 14 19 5 12 19 27 18 11 15 32 26 25 26 25 21 12 9 10 6 8 11 10 9 3 2 4 4 9 11 10 9 8 9 9 5 4 2 2 3 5
Wind_Direction
97 91 77 100 86 103 105 107 120 126 130 114 141 120 99 145 143 136 150 140 143 136 134 129 126 124 121 113 103 97 93 91 85 89 96 88 82 77 99 131 150 142 134 130 124 118 122 122 122
81 83 82 88 116 106 103 119 114 142 139 102 75 81 82 103 118 124 129 139 143 141 134 131 129 127 120 109 101 94 87 86 87 86 88 89 73 71 92 123 143 142 135 133 128 123 127 127 127
77 86 94 102 104 116 127 143 148 131 132 94 81 59 97 124 137 143 133 147 141 143 136 131 132 128 119 109 102 93 87 87 86 86 84 89 80 76 85 115 137 140 139 135 130 127 131 131 127
101 78 85 94 103 113 128 133 153 136 132 148 134 136 123 136 132 116 135 138 141 137 132 133 133 126 117 109 101 93 87 88 88 86 83 89 92 76 89 110 130 140 140 134 132 130 129 129 130
88 95 106 89 112 121 118 118 131 133 134 166 176 136 127 139 133 125 107 109 137 133 132 133 131 124 116 111 105 97 87 85 87 86 85 88 101 97 101 106 121 136 140 137 135 131 133 135 134
3 49 115 111 115 120 139 123 115 137 150 129 130 130 129 142 144 134 127 119 113 131 136 132 128 122 114 107 102 99 84 81 87 94 94 92 105 114 106 115 118 126 135 138 135 134 135 135 137
143 54 113 116 119 126 141 174 122 116 139 140 124 127 130 145 148 140 133 142 146 150 142 136 128 122 115 114 106 103 99 80 84 82 95 92 101 117 120 116 125 127 131 137 136 133 132 131 133
13 319 126 117 115 132 173 159 148 95 117 114 134 175 143 141 139 133 138 148 149 151 154 140 136 135 125 121 112 103 103 97 85 72 101 105 101 115 121 124 123 134 139 141 140 138 135 134 127
52 337 141 131 140 151 143 129 155 132 90 100 94 214 154 149 149 145 123 126 150 147 159 152 149 134 139 132 117 110 98 102 97 95 103 124 109 107 118 129 136 131 138 151 150 150 146 140 132
74 84 85 133 137 136 145 138 138 144 132 161 163 152 159 152 161 161 139 161 137 148 154 149 161 154 147 150 124 125 115 109 108 107 104 115 116 118 111 118 137 144 140 142 154 164 163 158 155
124 102 106 111 119 136 144 141 138 139 157 213 132 145 156 151 149 158 155 163 155 173 168 175 160 180 160 138 124 122 135 126 112 105 105 112 121 121 119 115 125 140 153 156 159 157 168 182 179
120 118 124 130 125 153 158 146 159 166 177 196 200 160 159 158 148 124 123 152 175 161 170 169 147 128 123 134 142 155 154 156 120 96 97 112 117 122 125 120 125 138 152 169 171 171 161 168 193
139 125 122 142 144 134 156 150 163 179 189 210 230 184 167 170 170 167 168 155 151 181 187 156 157 111 113 172 159 180 148 128 110 112 103 104 109 110 109 127 118 142 156 157 170 172 177 173 181
147 125 139 127 151 166 151 161 171 156 194 212 245 247 182 178 181 183 209 237 160 196 189 190 172 181 183 165 139 159 165 122 114 116 109 117 115 117 122 133 161 161 161 168 171 182 177 183 177
180 123 142 159 181 169 169 182 191 185 203 208 227 250 189 175 195 191 215 241 226 211 208 213 187 195 195 186 172 180 154 123 128 129 126 118 122 92 96 128 99 105 119 145 164 167 177 190 200
160 144 169 185 197 170 197 203 185 204 185 209 214 227 194 187 199 219 227 220 231 259 242 209 190 201 198 193 195 173 155 157 162 161 136 140 127 84 113 132 110 117 103 109 137 154 169 189 211
153 174 183 201 204 203 210 224 202 226 192 204 217 209 197 193 195 218 240 250 258 250 235 221 217 194 189 199 185 183 162 179 177 162 143 139 138 82 109 160 142 125 142 135 134 143 158 171 185
191 219 219 250 209 203 216 201 202 223 209 204 212 212 200 202 198 212 233 241 252 250 224 200 230 195 186 208 199 203 178 183 191 188 157 146 150 157 71 176 133 133 75 153 159 126 110 114 187
242 200 257 243 238 257 215 223 188 200 214 212 216 218 209 207 202 218 225 236 245 255 227 214 245 252 192 213 223 225 194 203 227 215 160 157 198 217 199 186 169 144 137 187 186 158 151 82 73
232 201 188 336 224 252 251 277 178 215 207 216 231 222 223 209 204 217 228 229 236 244 249 234 230 244 213 216 229 218 213 220 218 231 217 204 206 219 179 166 182 210 177 147 162 156 156 108 103
272 205 196 195 176 230 249 194 195 195 206 210 226 228 231 225 208 222 229 241 232 238 243 239 230 228 221 214 235 218 227 260 222 298 232 207 215 203 213 215 223 195 182 183 154 149 151 183 133
255 226 213 225 208 206 200 144 185 174 184 201 226 229 228 234 226 227 235 244 231 234 243 235 242 227 219 222 231 233 231 250 188 218 225 205 184 189 232 217 237 168 127 174 168 150 151 155 174
241 182 195 194 219 209 201 179 190 206 195 205 209 229 235 238 240 242 238 245 237 242 235 218 241 222 220 228 230 220 245 247 252 203 311 305 189 158 189 193 152 143 188 166 176 148 171 131 179
264 261 268 250 257 266 274 194 185 188 239 218 228 215 221 236 245 243 246 246 247 254 258 265 267 228 227 232 234 184 222 239 256 322 181 268 201 186 179 167 118 152 157 165 158 174 149 126 97
255 254 282 294 286 122 91 132 329 253 249 233 215 215 212 225 239 242 242 234 240 248 267 264 275 239 231 239 249 215 220 247 291 293 238 276 278 328 190 162 154 141 150 161 154 148 147 134 120
247 236 250 236 256 136 104 155 191 243 241 209 206 203 198 222 232 240 242 244 230 244 257 285 276 270 243 244 253 237 223 243 252 248 259 289 309 312 301 174 166 138 137 127 124 123 120 123 112
237 246 251 260 266 296 142 191 225 134 242 199 194 208 201 218 227 232 234 245 226 237 252 271 282 269 253 254 244 243 229 232 256 257 262 275 289 316 293 163 175 150 146 141 138 136 152 148 142
224 239 257 249 249 267 195 180 171 187 253 232 254 241 214 210 226 228 228 240 226 234 248 263 272 263 263 250 233 227 220 215 238 271 271 269 42 338 87 173 162 143 152 157 163 165 184 194 213
216 222 252 264 269 195 226 255 187 197 275 263 216 181 198 198 208 218 223 233 230 225 238 254 255 253 249 235 209 196 186 201 177 18 294 77 136 142 126 144 156 151 177 163 179 186 204 240 267
220 231 234 250 269 275 277 171 273 191 184 260 243 214 201 195 196 222 220 223 226 225 233 246 249 247 240 203 197 177 176 191 223 346 330 142 159 165 159 158 163 176 189 193 199 229 222 253 275
Height
3160 3160 3161 3163 3166 3166 3165 3168 3169 3170 3172 3173 3173 3175 3175 3176 3177 3182 3183 3186 3189 3191 3192 3194 3195 3196 3197 3198 3199 3201 3200 3198 3198 3198 3198 3199 3199 3198 3198 3199 3200 3203 3204 3206 3208 3209 3210 3211 3213
3163 3162 3162 3162 3165 3164 3170 3171 3171 3172 3173 3173 3173 3173 3176 3176 3177 3180 3182 3187 3191 3193 3194 3196 3197 3199 3199 3199 3201 3202 3202 3202 3200 3199 3200 3200 3200 3199 3198 3199 3201 3204 3206 3208 3210 3211 3213 3214 3215
3165 3165 3163 3162 3163 3165 3170 3172 3171 3173 3175 3175 3173 3176 3177 3178 3180 3182 3187 3188 3192 3194 3196 3198 3199 3200 3200 3201 3202 3203 3204 3204 3202 3201 3202 3202 3202 3201 3200 3201 3203 3205 3208 3210 3213 3213 3214 3216 3217
3163 3164 3165 3166 3164 3168 3170 3173 3173 3175 3176 3175 3177 3177 3178 3182 3183 3184 3189 3192 3194 3196 3198 3199 3201 3202 3203 3203 3203 3204 3205 3205 3204 3203 3204 3204 3204 3204 3203 3203 3205 3207 3210 3212 3215 3216 3217 3218 3218
3162 3160 3164 3166 3166 3168 3174 3175 3177 3177 3177 3177 3177 3176 3180 3184 3185 3187 3190 3194 3196 3197 3199 3201 3202 3203 3205 3205 3205 3205 3207 3207 3205 3205 3205 3206 3206 3206 3207 3207 3208 3210 3212 3213 3216 3218 3219 3220 3220
3168 3169 3170 3166 3165 3170 3176 3177 3178 3178 3178 3177 3179 3180 3181 3186 3187 3188 3191 3194 3197 3198 3200 3202 3204 3205 3206 3207 3207 3207 3209 3209 3207 3207 3206 3207 3208 3208 3209 3209 3211 3212 3215 3216 3217 3219 3221 3222 3223
3168 3162 3171 3168 3166 3172 3177 3178 3179 3179 3179 3179 3181 3182 3184 3187 3190 3190 3192 3196 3198 3201 3202 3203 3204 3206 3207 3208 3208 3208 3209 3210 3209 3210 3209 3209 3210 3209 3211 3211 3213 3214 3216 3219 3219 3221 3223 3224 3225
3168 3170 3171 3169 3165 3174 3178 3180 3179 3178 3180 3181 3183 3184 3186 3187 3190 3192 3194 3197 3200 3201 3203 3204 3206 3208 3208 3209 3208 3209 3210 3210 3211 3210 3210 3211 3212 3211 3211 3213 3215 3216 3218 3220 3222 3223 3224 3225 3226
3162 3170 3169 3166 3168 3175 3178 3179 3181 3182 3181 3182 3183 3186 3187 3187 3188 3191 3195 3198 3200 3200 3203 3204 3206 3208 3209 3209 3209 3210 3211 3210 3212 3211 3209 3212 3213 3213 3213 3214 3216 3217 3218 3220 3222 3224 3225 3226 3227
3169 3170 3168 3169 3171 3176 3179 3181 3183 3184 3184 3182 3184 3185 3187 3188 3190 3191 3194 3196 3199 3201 3203 3205 3206 3208 3209 3210 3210 3210 3210 3211 3212 3211 3211 3212 3213 3214 3215 3216 3217 3218 3219 3221 3222 3223 3225 3227 3227
3174 3172 3174 3175 3175 3180 3181 3182 3183 3184 3185 3182 3185 3186 3188 3190 3193 3194 3195 3197 3199 3202 3203 3205 3206 3208 3209 3208 3210 3211 3211 3212 3212 3213 3213 3214 3214 3214 3215 3216 3217 3218 3220 3221 3222 3224 3225 3227 3228
3175 3174 3176 3178 3179 3181 3182 3183 3183 3183 3182 3183 3186 3188 3190 3192 3194 3196 3196 3197 3199 3200 3201 3203 3204 3206 3208 3209 3210 3211 3211 3212 3213 3211 3212 3214 3215 3215 3215 3216 3216 3217 3219 3221 3222 3224 3225 3227 3227
3177 3176 3177 3179 3180 3181 3182 3183 3184 3185 3182 3184 3186 3187 3190 3192 3195 3196 3196 3197 3200 3202 3202 3203 3204 3205 3208 3209 3211 3212 3212 3210 3211 3212 3213 3214 3215 3215 3214 3215 3216 3217 3218 3220 3223 3223 3224 3226 3227
3177 3177 3178 3180 3181 3180 3181 3183 3185 3186 3183 3183 3184 3186 3188 3191 3193 3197 3196 3197 3200 3202 3202 3203 3205 3207 3208 3209 3211 3212 3211 3211 3212 3212 3214 3215 3215 3216 3215 3216 3217 3218 3218 3220 3222 3224 3224 3226 3226
3179 3178 3179 3181 3182 3182 3183 3184 3184 3186 3183 3183 3183 3185 3187 3189 3192 3194 3197 3198 3202 3203 3203 3204 3206 3207 3208 3210 3210 3212 3211 3213 3214 3213 3214 3215 3217 3218 3218 3218 3218 3219 3219 3219 3222 3224 3224 3225 3226
3178 3179 3181 3182 3183 3185 3185 3185 3185 3186 3187 3184 3184 3185 3187 3190 3193 3195 3196 3199 3201 3201 3202 3204 3205 3206 3208 3210 3211 3211 3213 3213 3214 3216 3214 3216 3217 3219 3219 3220 3220 3220 3220 3220 3222 3224 3224 3224 3225
3178 3179 3178 3181 3183 3185 3186 3187 3188 3187 3188 3188 3187 3187 3188 3191 3195 3195 3195 3197 3199 3201 3202 3202 3203 3206 3208 3210 3211 3212 3213 3213 3214 3216 3214 3217 3218 3219 3220 3221 3221 3221 3221 3221 3222 3223 3224 3223 3224
3178 3178 3178 3179 3186 3187 3185 3186 3186 3187 3187 3189 3190 3189 3189 3191 3194 3196 3195 3197 3198 3199 3201 3202 3204 3206 3206 3209 3210 3211 3212 3213 3213 3213 3216 3218 3219 3220 3220 3221 3222 3220 3221 3222 3223 3223 3223 3223 3223
3177 3178 3180 3182 3184 3182 3178 3188 3190 3189 3187 3187 3189 3190 3190 3191 3193 3195 3197 3195 3196 3196 3199 3202 3201 3202 3206 3207 3209 3211 3212 3213 3213 3214 3214 3217 3219 3220 3221 3221 3222 3221 3222 3223 3222 3224 3223 3223 3223
3168 3179 3183 3183 3180 3178 3177 3181 3188 3190 3187 3191 3187 3188 3188 3190 3192 3193 3195 3196 3194 3196 3199 3201 3202 3202 3204 3206 3208 3209 3211 3212 3214 3214 3217 3218 3218 3220 3221 3220 3222 3222 3223 3224 3223 3223 3223 3224 3224
3163 3167 3172 3175 3173 3176 3177 3187 3178 3179 3177 3183 3186 3185 3185 3186 3188 3190 3192 3194 3193 3195 3198 3200 3200 3201 3203 3206 3207 3208 3209 3212 3213 3215 3216 3217 3218 3219 3221 3221 3221 3222 3223 3223 3223 3223 3223 3225 3224
3157 3159 3166 3174 3172 3166 3170 3180 3175 3174 3175 3177 3179 3180 3181 3182 3184 3186 3190 3192 3190 3193 3197 3199 3198 3199 3202 3205 3207 3207 3210 3212 3213 3214 3215 3216 3215 3218 3219 3220 3221 3221 3221 3221 3221 3221 3224 3223 3224
3156 3156 3159 3159 3160 3164 3165 3168 3170 3171 3172 3173 3175 3176 3176 3177 3179 3181 3184 3188 3190 3191 3195 3197 3197 3199 3202 3204 3206 3207 3209 3210 3210 3212 3211 3200 3214 3213 3215 3219 3219 3220 3221 3222 3222 3222 3223 3222 3223
3154 3156 3158 3159 3157 3157 3159 3162 3165 3168 3166 3168 3170 3172 3173 3174 3176 3179 3181 3185 3187 3189 3192 3195 3198 3199 3201 3203 3205 3207 3209 3210 3211 3211 3213 3213 3212 3212 3212 3215 3219 3220 3220 3220 3220 3223 3222 3222 3223
3151 3154 3153 3155 3155 3158 3153 3161 3168 3166 3162 3158 3164 3168 3172 3172 3174 3176 3178 3182 3184 3185 3189 3192 3195 3197 3199 3201 3203 3207 3209 3209 3211 3212 3209 3210 3209 3198 3211 3215 3217 3218 3221 3221 3220 3221 3222 3222 3222
3147 3150 3150 3154 3153 3155 3156 3161 3160 3158 3157 3156 3160 3165 3169 3170 3172 3174 3176 3178 3181 3183 3186 3189 3192 3195 3197 3200 3201 3205 3208 3208 3209 3210 3209 3209 3209 3211 3213 3214 3218 3216 3217 3221 3220 3221 3222 3223 3222
3144 3144 3148 3146 3145 3149 3153 3155 3154 3152 3152 3153 3157 3162 3164 3170 3169 3170 3175 3176 3179 3182 3184 3186 3190 3193 3196 3198 3200 3202 3205 3207 3206 3208 3209 3210 3211 3209 3210 3212 3217 3215 3215 3220 3220 3221 3223 3224 3223
3139 3144 3145 3143 3147 3149 3146 3144 3145 3147 3148 3151 3157 3163 3161 3167 3168 3170 3172 3174 3177 3180 3182 3185 3188 3191 3194 3196 3199 3201 3204 3205 3206 3207 3208 3210 3212 3209 3203 3207 3214 3215 3214 3217 3219 3221 3223 3223 3221
3136 3137 3138 3142 3142 3142 3146 3143 3141 3148 3149 3151 3154 3148 3151 3161 3164 3167 3170 3172 3175 3178 3180 3183 3185 3188 3191 3194 3197 3199 3202 3204 3205 3207 3208 3209 3211 3210 3211 3212 3212 3214 3216 3217 3218 3220 3221 3222 3221
3131 3132 3134 3135 3137 3138 3139 3143 3143 3142 3146 3145 3141 3146 3153 3157 3161 3163 3167 3171 3172 3175 3178 3181 3184 3186 3189 3193 3196 3199 3201 3203 3203 3206 3206 3207 3208 3209 3210 3211 3213 3214 3216 3215 3217 3219 3220 3220 3219